Other Public Products
Issued by NWS Grand Forks, ND

Home | Current Version | Previous Version | Graphics & Text | Print | Product List | Glossary On
Versions: 1 2 3 4 5 6 7 8 9 10 11 12 13 14 15 16 17 18 19 20 21 22 23 24 25 26 27 28 29 30 31 32 33 34 35 36 37 38 39 40 41 42 43 44 45 46 47 48 49 50
000
FPUS83 KFGF 071110
OPUFGF
PRAIRIE TO PINES WEATHER ROUNDUP
NATIONAL WEATHER SERVICE EASTERN NORTH DAKOTA/GRAND FORKS ND
600 AM CDT TUE JUL 07 2015

 **SATELLITE DATA USED TO AUGMENT SKY COVER AT AUTOMATED STATIONS**
 *****  WEATHER ACROSS EASTERN NORTH DAKOTA  *****

CITY           SKY/WX    TMP DP  RH WIND       PRES   REMARKS
GRAND FORKS    CLEAR     44  42  93 W6        30.17S
GRAND FORKS AF CLEAR     43  41  94 W3        30.17S
GRAND CITY NWS   N/A     45 N/A N/A MISG        N/A
BUXTON         NOT AVBL
DEVILS LAKE    CLEAR     55  46  71 SW14      30.17S
FARGO          CLEAR     42  39  89 CALM      30.19R
WAHPETON ARPT  SUNNY     43  37  81 CALM      30.20R
$$

 *****  WEATHER ACROSS CENTRAL AND WESTERN NORTH DAKOTA  *****

CITY           SKY/WX    TMP DP  RH WIND       PRES   REMARKS
JAMESTOWN      CLEAR     49  46  90 SW3       30.20R
BISMARCK       CLEAR     46  44  93 E3        30.20S
MINOT          CLEAR     49  44  83 CALM      30.15F
MINOT AFB      CLEAR     45  45 100 S2        30.14F
GARRISON         N/A     51  46  83 S5        30.17S
WILLISTON      CLEAR     54  49  83 SW3       30.14F
DICKINSON      CLEAR     50  47  89 S10       30.15F FOG
HETTINGER      CLEAR     51  49  92 E8        30.18F FOG
$$

 *****  OTHER OBSERVATIONS NORTHEAST NORTH DAKOTA  *****

CITY           SKY/WX    TMP DP  RH WIND       PRES   REMARKS
WALHALLA       FAIR      50  50 100 MISG      30.16S
LANGDON        FAIR      41  41 100 SW6       30.18S
CAVALIER       FAIR      50  45  81 W7        30.16S
GRAFTON        FAIR      48  48 100 W6        30.17S
CANDO          FAIR      45  45 100 SW7       30.18S
FORT TOTTEN      N/A     48  46  93 SE3       29.95S
ROLLA          FAIR      46  46 100 SW8       30.18S
RUGBY          NOT AVBL
 ***** THE ABOVE OBSERVATIONS ARE NON NWS ARE NOT QUALITY
        CONTROLLED AND MAY MIS-REPORT RAIN FOR SNOW...
$$

 *****  OTHER OBSERVATIONS SOUTHEAST NORTH DAKOTA *****

CITY           SKY/WX    TMP DP  RH WIND       PRES   REMARKS
COOPERSTOWN    NOT AVBL
VALLEY CITY    FAIR      43  43 100 W3        30.20S
OAKES            N/A     46  46 100 W3        30.21R FOG
GWINNER          N/A     46  45  93 W5        30.21R
BUFFALO        NOT AVBL
WYNDMERE         N/A     43  43 100 SW2         N/A
 ***** THE ABOVE OBSERVATIONS ARE NON NWS ARE NOT QUALITY
       CONTROLLED AND MAY MIS-REPORT RAIN FOR SNOW...
$$

  *****  WEATHER ACROSS NORTHERN MINNESOTA  *****

CITY           SKY/WX    TMP DP  RH WIND       PRES   REMARKS
FLAG ISLAND    CLEAR     52  46  82 NW8       30.12S
WARROAD        CLEAR     46  43  87 W5        30.15R
ROSEAU         CLEAR     48  43  81 W5        30.15S
HALLOCK        CLEAR     41  39  93 S5        30.16R
THF RVR FALLS  CLEAR     46  45  93 CALM      30.18R
HALSTAD        NOT AVBL
FOSSTON        CLEAR     37  36  93 CALM      30.18S FOG
BAUDETTE       CLEAR     45  42  89 W6        30.14R
WASKISH        CLEAR     52  45  76 NW6       30.15R
CROOKSTON      CLEAR     46  45  93 CALM      30.19R
$$
  *****  WEATHER ACROSS CENTRAL AND WEST MINNESOTA  *****

CITY           SKY/WX    TMP DP  RH WIND       PRES   REMARKS
BEMIDJI        CLEAR     42  41  97 NW6       30.17R
PARK RAPIDS    CLEAR     45  42  89 NW7       30.16S
WADENA         CLEAR     43  43 100 NW3       30.17S
DETROIT LAKES  CLEAR     46  45  93 NW5       30.19S
MOORHEAD       CLEAR     46  45  93 CALM      30.20S
FERGUS FALLS   CLEAR     48  46  93 CALM      30.20R
ELBOW LAKE     FAIR      48  46  95 NW5       30.19R
MORRIS MN      CLEAR     46  45  93 NW5       30.18R
STAPLES        CLEAR     45  43  93 NW3       30.17R
WHEATON        CLEAR     46  43  87 CALM      30.21S
$$
  *****  WEATHER ELSEWHERE ACROSS MINNESOTA  *****

CITY           SKY/WX    TMP DP  RH WIND       PRES   REMARKS
DULUTH         MOCLDY    52  44  74 NW6       30.12R
INTRNTL FALLS  CLEAR     39  38  96 CALM      30.12R
ELY            CLOUDY    50  45  81 NW5       30.11R
CLOQUET        PTCLDY    48  43  81 NW3       30.13R
BRAINERD       CLEAR     47  45  93 CALM      30.16R
HIBBING        FOG       40  39  97 CALM      30.14R VSB 1
ALEXANDRIA     CLEAR     50  47  89 N6        30.19R
SAINT CLOUD    CLEAR     49  46  90 NW5       30.15R
MINNEAPOLIS    PTCLDY    54  44  69 N10       30.12R
$$

  *****  WEATHER ACROSS SOUTH DAKOTA  *****

CITY           SKY/WX    TMP DP  RH WIND       PRES   REMARKS
SIOUX FALLS    PTCLDY    51  48  89 N7        30.17S
BROOKINGS      CLEAR     48  43  81 CALM      30.21R
WATERTOWN      CLEAR     46  43  89 CALM      30.19R
HURON          CLEAR     51  51 100 N3        30.19R FOG
SISSETON         N/A     46  43  89 NW3       30.19R
ABERDEEN       CLEAR     49  47  93 CALM      30.21R
MITCHELL       CLEAR     53  52  96 N5        30.19R FOG
PIERRE         CLEAR     52  50  93 E7        30.17S FOG
MOBRIDGE       CLEAR     56  52  86 E8        30.17S
RAPID CITY     PTCLDY    54  53  97 SE3       30.17S FOG
$$

  *****  SOME WEATHER IN NEARBY STATES *****

CITY           SKY/WX    TMP DP  RH WIND       PRES   REMARKS
GLASGOW MT     PTCLDY    55  48  77 E10       30.06F
GREAT FALLS MT CLEAR     51  47  86 SW6       30.06S
CHEYENNE WY    CLOUDY    53  52  96 S13       30.26S FOG
SCOTTSBLUFF NE CLOUDY    61  55  81 SE7       30.20F HAZE
OMAHA NE       PTCLDY    54  51  90 N6        30.12R
DES MOINES IA  PTCLDY    59  51  75 N13       30.05R
DAVENPORT IA   PTCLDY    59  57  93 N6        29.97R FOG
CHICAGO IL     RAIN      59  57  93 N18       29.91R FOG
EAU CLAIRE WI  CLEAR     49  45  86 NW5       30.07R
LA CROSSE WI   MOCLDY    57  50  77 N10       30.05R
$$

  *****  SOME NATIONAL WEATHER *****

CITY           SKY/WX    TMP DP  RH WIND       PRES   REMARKS
LA GUARDIA NY  PTSUNNY   77  72  83 S7        30.04S
RALEIGH NC     PTCLDY    73  70  90 CALM      30.12R
ATLANTA GA     PTCLDY    72  68  87 W5        30.16R
NEW ORLEANS LA PTCLDY    80  75  84 S5        30.10S
OKLAHOMA CITY  CLOUDY    72  71  97 N7        29.96R
ALBUQUERQUE NM CLOUDY    63  57  81 E21G30    30.19F
SALT LAKE CITY PTCLDY    67  59  75 S6        30.06S
LOS ANGELES CA CLOUDY    64  60  87 W6        29.98S
BOISE ID       MOCLDY    75  48  38 SE10      29.97S
SEATTLE WA     PTCLDY    58  52  80 S6        30.06R
$$

*** WEATHER ACROSS MANITOBA...SASKATCHEWAN AND ONTARIO ***
                ***ONTARIO***

CITY           SKY/WX    TMP DP  RH WIND       PRES   REMARKS
GERALDTON      MOCLDY    50  45  81 NW5       29.97R
THUNDER BAY    PTCLDY    50  46  87 W7        30.05R
SIOUX LOOKOUT  PTCLDY    46  46 100 NW5       30.08R
TORONTO        PTSUNNY   68  61  77 SE6       29.89F
BIG TROUT LK   MOCLDY    54  48  82 W7        29.88S
PICKLE LAKE    MOCLDY    52  43  71 W9        29.99
DRYDEN         CLEAR     45  43  93 W7        30.09R
KENORA         PTCLDY    50  41  71 NW8       30.13R
$$
                *** MANITOBA***

CITY           SKY/WX    TMP DP  RH WIND       PRES   REMARKS
BRANDON        PTCLDY    41  39  93 NW5       30.14F
DAUPHIN        CLEAR     54  43  66 SW10      30.08S
ISLAND LAKE    PTCLDY    57  48  72 W7        29.95S
PILOT MOUND      N/A     43  41  93 SW6         N/A
THE PAS        MOCLDY    52  45  76 SW8       29.93F SMOKE
THOMPSON         N/A     52  45  76 S6        29.80F SMOKE
WINNIPEG       PTCLDY    50  43  76 W7        30.14S
LYNN LAKE      CLOUDY    57  50  77 W10       29.72F HAZE
CHURCHILL      PTCLDY    48  45  87 N15       29.70F
GILLAM           N/A     54  46  76 SW8       29.77F SMOKE
$$
                ***SASKATCHEWAN***

CITY           SKY/WX    TMP DP  RH WIND       PRES   REMARKS
ESTEVAN        PTCLDY    46  45  93 S9        30.13F
KINDERSLEY     MOCLDY    54  48  82 W5        30.02F
LLOYDMINSTER   CLEAR     52  46  82 NW9       30.04R
PRINCE ALBERT  MOCLDY    48  46  93 SW6       29.97F FOG
REGINA         CLOUDY    48  45  87 SE7       30.08F
YORKTON        CLEAR     52  46  82 S8        30.07F


USA.gov is the U.S. government's official web portal to all federal, state and local government web resources and services.